Location: Winthrop
(48.4780°N, 120.1850°W)
Time: 17:53:31
(UTC-07:00)

Explorer 7 - Pass Details

Date: 04 February 2023
Orbit: 478 x 657 km, 50.3° (Epoch: 30 March)

Event Time Altitude Azimuth Distance (km) Brightness Sun altitude
Rises 17:55:58 0° 285° (WNW) 2,881 11.7 -8.9°
Reaches altitude 10° 17:58:44 10° 268° (W) 2,003 11.2 -9.4°
Maximum altitude 18:02:03 20° 222° (SW) 1,493 9.8 -9.9°
Drops below altitude 10° 18:05:26 10° 177° (S) 2,050 9.8 -10.4°
Sets 18:08:19 0° 160° (SSE) 2,971 10.5 -10.9°
